Time,TemperatureF,DewpointF,PressureIn,WindDirection,WindDirectionDegrees,WindSpeedMPH,WindSpeedGustMPH,Humidity,HourlyPrecipIn,Conditions,Clouds,dailyrainin,SolarRadiationWatts/m^2,SoftwareType,DateUTC
2013-05-26 00:02:00,47.0,43.0,-100.00,ESE,111,2.0,4.0,86,0.00,,,0.02,0.000000,,2013-05-26 05:02:00,
2013-05-26 00:32:00,51.0,46.0,-100.00,ESE,120,1.0,3.0,82,0.00,,,0.02,0.000000,,2013-05-26 05:32:00,
2013-05-26 00:42:00,51.0,46.0,-100.00,ESE,120,1.0,3.0,82,0.00,,,0.02,0.000000,,2013-05-26 05:42:00,
2013-05-26 00:52:00,51.0,46.0,-100.00,ESE,120,1.0,3.0,82,0.00,,,0.02,0.000000,,2013-05-26 05:52:00,
2013-05-26 01:01:00,51.0,46.0,-100.00,ESE,120,1.0,3.0,82,0.00,,,0.02,0.000000,,2013-05-26 06:01:00,
2013-05-26 01:32:00,49.0,43.0,-100.00,SE,132,2.0,4.0,79,0.00,,,0.01,0.000000,,2013-05-26 06:32:00,
2013-05-26 01:42:00,49.0,43.0,-100.00,SE,132,2.0,4.0,79,0.00,,,0.01,0.000000,,2013-05-26 06:42:00,
2013-05-26 01:52:00,49.0,43.0,-100.00,SE,132,2.0,4.0,79,0.00,,,0.01,0.000000,,2013-05-26 06:52:00,
2013-05-26 02:01:00,49.0,43.0,-100.00,SE,132,2.0,4.0,79,0.00,,,0.01,0.000000,,2013-05-26 07:01:00,
2013-05-26 02:32:00,44.0,41.0,-100.00,SE,135,1.0,4.0,90,0.00,,,0.01,0.000000,,2013-05-26 07:32:00,
2013-05-26 02:42:00,44.0,41.0,-100.00,SE,135,1.0,4.0,90,0.00,,,0.01,0.000000,,2013-05-26 07:42:00,
2013-05-26 02:52:00,44.0,41.0,-100.00,SE,135,1.0,4.0,90,0.00,,,0.01,0.000000,,2013-05-26 07:52:00,
2013-05-26 03:01:00,44.0,41.0,-100.00,SE,135,1.0,4.0,90,0.00,,,0.01,0.000000,,2013-05-26 08:01:00,
2013-05-26 03:32:00,43.0,40.0,-100.00,NNE,27,2.0,5.0,88,0.00,,,0.01,0.000000,,2013-05-26 08:32:00,
2013-05-26 03:42:00,43.0,40.0,-100.00,NNE,27,2.0,5.0,88,0.00,,,0.01,0.000000,,2013-05-26 08:42:00,
2013-05-26 03:53:00,43.0,40.0,-100.00,NNE,27,2.0,5.0,88,0.00,,,0.01,0.000000,,2013-05-26 08:53:00,
2013-05-26 04:01:00,43.0,40.0,-100.00,NNE,27,2.0,5.0,88,0.00,,,0.01,0.000000,,2013-05-26 09:01:00,
2013-05-26 04:34:00,45.0,40.0,-100.00,East,87,2.0,7.0,83,0.00,,,0.01,0.000000,,2013-05-26 09:34:00,
2013-05-26 04:43:00,45.0,40.0,-100.00,East,87,2.0,7.0,83,0.00,,,0.01,0.000000,,2013-05-26 09:43:00,
2013-05-26 04:53:00,45.0,40.0,-100.00,East,87,2.0,7.0,83,0.00,,,0.01,0.000000,,2013-05-26 09:53:00,
2013-05-26 05:02:00,45.0,40.0,-100.00,East,87,2.0,7.0,83,0.00,,,0.01,0.000000,,2013-05-26 10:02:00,
2013-05-26 05:33:00,47.0,41.0,-100.00,ENE,76,4.0,8.0,80,0.00,,,0.01,0.000000,,2013-05-26 10:33:00,
2013-05-26 05:42:00,47.0,41.0,-100.00,ENE,76,4.0,8.0,80,0.00,,,0.01,0.000000,,2013-05-26 10:42:00,
2013-05-26 05:52:00,47.0,41.0,-100.00,ENE,76,4.0,8.0,80,0.00,,,0.01,0.000000,,2013-05-26 10:52:00,
2013-05-26 06:03:00,47.0,41.0,-100.00,ENE,76,4.0,8.0,80,0.00,,,0.01,0.000000,,2013-05-26 11:03:00,
2013-05-26 06:32:00,46.0,40.0,-100.00,ENE,62,2.0,6.0,80,0.00,,,0.00,8.000000,,2013-05-26 11:32:00,
2013-05-26 06:42:00,46.0,40.0,-100.00,ENE,62,2.0,6.0,80,0.00,,,0.00,8.000000,,2013-05-26 11:42:00,
2013-05-26 06:52:00,46.0,40.0,-100.00,ENE,62,2.0,6.0,80,0.00,,,0.00,8.000000,,2013-05-26 11:52:00,
2013-05-26 07:02:00,46.0,40.0,-100.00,ENE,62,2.0,6.0,80,0.00,,,0.00,8.000000,,2013-05-26 12:02:00,
2013-05-26 07:32:00,50.0,42.0,-100.00,ENE,76,5.0,7.0,75,0.00,,,0.00,83.000000,,2013-05-26 12:32:00,
2013-05-26 07:42:00,50.0,42.0,-100.00,ENE,76,5.0,7.0,75,0.00,,,0.00,83.000000,,2013-05-26 12:42:00,
2013-05-26 07:52:00,50.0,42.0,-100.00,ENE,76,5.0,7.0,75,0.00,,,0.00,83.000000,,2013-05-26 12:52:00,
2013-05-26 08:02:00,50.0,42.0,-100.00,ENE,76,5.0,7.0,75,0.00,,,0.00,83.000000,,2013-05-26 13:02:00,
2013-05-26 08:32:00,53.0,41.0,-100.00,East,97,7.0,10.0,64,0.00,,,0.00,191.000000,,2013-05-26 13:32:00,
2013-05-26 08:42:00,53.0,41.0,-100.00,East,97,7.0,10.0,64,0.00,,,0.00,191.000000,,2013-05-26 13:42:00,
2013-05-26 08:52:00,53.0,41.0,-100.00,East,97,7.0,10.0,64,0.00,,,0.00,191.000000,,2013-05-26 13:52:00,
2013-05-26 09:02:00,53.0,41.0,-100.00,East,97,7.0,10.0,64,0.00,,,0.00,191.000000,,2013-05-26 14:02:00,
2013-05-26 09:32:00,56.0,41.0,-100.00,East,93,7.0,11.0,58,0.00,,,-99.99,219.000000,,2013-05-26 14:32:00,
2013-05-26 09:42:00,56.0,41.0,-100.00,East,93,7.0,11.0,58,0.00,,,-99.99,219.000000,,2013-05-26 14:42:00,
2013-05-26 09:52:00,56.0,41.0,-100.00,East,93,7.0,11.0,58,0.00,,,-99.99,219.000000,,2013-05-26 14:52:00,
2013-05-26 10:01:00,56.0,41.0,-100.00,East,93,7.0,11.0,58,0.00,,,-99.99,219.000000,,2013-05-26 15:01:00,
2013-05-26 10:33:00,61.0,34.0,-100.00,ESE,117,8.0,15.0,36,0.00,,,0.00,364.000000,,2013-05-26 15:33:00,
2013-05-26 10:43:00,61.0,34.0,-100.00,ESE,117,8.0,15.0,36,0.00,,,0.00,364.000000,,2013-05-26 15:43:00,
2013-05-26 10:53:00,61.0,34.0,-100.00,ESE,117,8.0,15.0,36,0.00,,,0.00,364.000000,,2013-05-26 15:53:00,
2013-05-26 11:03:00,61.0,34.0,-100.00,ESE,117,8.0,15.0,36,0.00,,,0.00,364.000000,,2013-05-26 16:03:00,
2013-05-26 11:33:00,64.0,33.0,-100.00,ESE,111,8.0,16.0,31,0.00,,,0.00,496.000000,,2013-05-26 16:33:00,
2013-05-26 11:42:00,64.0,33.0,-100.00,ESE,111,8.0,16.0,31,0.00,,,0.00,496.000000,,2013-05-26 16:42:00,
2013-05-26 11:53:00,64.0,33.0,-100.00,ESE,111,8.0,16.0,31,0.00,,,0.00,496.000000,,2013-05-26 16:53:00,
2013-05-26 12:02:00,64.0,33.0,-100.00,ESE,111,8.0,16.0,31,0.00,,,0.00,496.000000,,2013-05-26 17:02:00,
2013-05-26 12:32:00,66.0,30.0,-100.00,SE,127,10.0,17.0,26,0.00,,,0.00,635.000000,,2013-05-26 17:32:00,
2013-05-26 12:42:00,66.0,30.0,-100.00,SE,127,10.0,17.0,26,0.00,,,0.00,635.000000,,2013-05-26 17:42:00,
2013-05-26 12:52:00,66.0,30.0,-100.00,SE,127,10.0,17.0,26,0.00,,,0.00,635.000000,,2013-05-26 17:52:00,
2013-05-26 13:01:00,66.0,30.0,-100.00,SE,127,10.0,17.0,26,0.00,,,0.00,635.000000,,2013-05-26 18:01:00,
2013-05-26 13:32:00,66.0,29.0,-100.00,SE,130,9.0,18.0,25,0.00,,,0.00,574.000000,,2013-05-26 18:32:00,
2013-05-26 13:42:00,66.0,29.0,-100.00,SE,130,9.0,18.0,25,0.00,,,0.00,574.000000,,2013-05-26 18:42:00,
2013-05-26 13:52:00,66.0,29.0,-100.00,SE,130,9.0,18.0,25,0.00,,,0.00,574.000000,,2013-05-26 18:52:00,
2013-05-26 14:01:00,66.0,29.0,-100.00,SE,130,9.0,18.0,25,0.00,,,0.00,574.000000,,2013-05-26 19:01:00,
2013-05-26 14:32:00,68.0,31.0,-100.00,ESE,118,10.0,18.0,25,0.00,,,0.00,568.000000,,2013-05-26 19:32:00,
2013-05-26 14:42:00,68.0,31.0,-100.00,ESE,118,10.0,18.0,25,0.00,,,0.00,568.000000,,2013-05-26 19:42:00,
2013-05-26 14:52:00,68.0,31.0,-100.00,ESE,118,10.0,18.0,25,0.00,,,0.00,568.000000,,2013-05-26 19:52:00,
2013-05-26 15:02:00,68.0,31.0,-100.00,ESE,118,10.0,18.0,25,0.00,,,0.00,568.000000,,2013-05-26 20:02:00,
2013-05-26 15:32:00,69.0,33.0,-100.00,ESE,119,10.0,19.0,26,0.00,,,0.00,802.000000,,2013-05-26 20:32:00,
2013-05-26 15:42:00,69.0,33.0,-100.00,ESE,119,10.0,19.0,26,0.00,,,0.00,802.000000,,2013-05-26 20:42:00,
2013-05-26 15:52:00,69.0,33.0,-100.00,ESE,119,10.0,19.0,26,0.00,,,0.00,802.000000,,2013-05-26 20:52:00,
2013-05-26 16:02:00,69.0,33.0,-100.00,ESE,119,10.0,19.0,26,0.00,,,0.00,802.000000,,2013-05-26 21:02:00,
2013-05-26 16:33:00,70.0,34.0,-100.00,SE,128,9.0,19.0,27,0.00,,,0.00,601.000000,,2013-05-26 21:33:00,
2013-05-26 16:43:00,70.0,34.0,-100.00,SE,128,9.0,19.0,27,0.00,,,0.00,601.000000,,2013-05-26 21:43:00,
2013-05-26 16:53:00,70.0,34.0,-100.00,SE,128,9.0,19.0,27,0.00,,,0.00,601.000000,,2013-05-26 21:53:00,
2013-05-26 17:02:00,70.0,34.0,-100.00,SE,128,9.0,19.0,27,0.00,,,0.00,601.000000,,2013-05-26 22:02:00,
2013-05-26 17:33:00,66.0,34.0,-100.00,SSE,166,7.0,16.0,31,0.00,,,0.00,209.000000,,2013-05-26 22:33:00,
2013-05-26 17:42:00,66.0,34.0,-100.00,SSE,166,7.0,16.0,31,0.00,,,0.00,209.000000,,2013-05-26 22:42:00,
2013-05-26 17:53:00,66.0,34.0,-100.00,SSE,166,7.0,16.0,31,0.00,,,0.00,209.000000,,2013-05-26 22:53:00,
2013-05-26 18:02:00,66.0,34.0,-100.00,SSE,166,7.0,16.0,31,0.00,,,0.00,209.000000,,2013-05-26 23:02:00,
2013-05-26 18:32:00,62.0,36.0,-100.00,SSW,197,4.0,13.0,38,0.00,,,0.00,90.000000,,2013-05-26 23:32:00,
2013-05-26 18:43:00,62.0,36.0,-100.00,SSW,197,4.0,13.0,38,0.00,,,0.00,90.000000,,2013-05-26 23:43:00,
2013-05-26 18:52:00,62.0,36.0,-100.00,SSW,197,4.0,13.0,38,0.00,,,0.00,90.000000,,2013-05-26 23:52:00,
2013-05-26 19:02:00,62.0,36.0,-100.00,SSW,197,4.0,13.0,38,0.00,,,0.00,90.000000,,2013-05-27 00:02:00,
2013-05-26 19:32:00,62.0,37.0,-100.00,South,182,3.0,6.0,40,0.00,,,0.00,46.000000,,2013-05-27 00:32:00,
2013-05-26 19:42:00,62.0,37.0,-100.00,South,182,3.0,6.0,40,0.00,,,0.00,46.000000,,2013-05-27 00:42:00,
2013-05-26 19:52:00,62.0,37.0,-100.00,South,182,3.0,6.0,40,0.00,,,0.00,46.000000,,2013-05-27 00:52:00,
2013-05-26 20:01:00,62.0,37.0,-100.00,South,182,3.0,6.0,40,0.00,,,0.00,46.000000,,2013-05-27 01:01:00,
2013-05-26 20:32:00,61.0,40.0,-100.00,SE,139,2.0,4.0,45,0.00,,,0.00,15.000000,,2013-05-27 01:32:00,
2013-05-26 20:42:00,61.0,40.0,-100.00,SE,139,2.0,4.0,45,0.00,,,0.00,15.000000,,2013-05-27 01:42:00,
2013-05-26 20:52:00,61.0,40.0,-100.00,SE,139,2.0,4.0,45,0.00,,,0.00,15.000000,,2013-05-27 01:52:00,
2013-05-26 21:01:00,61.0,40.0,-100.00,SE,139,2.0,4.0,45,0.00,,,0.00,15.000000,,2013-05-27 02:01:00,
2013-05-26 21:32:00,61.0,40.0,-100.00,SE,140,2.0,7.0,45,0.00,,,0.00,3.000000,,2013-05-27 02:32:00,
2013-05-26 21:43:00,61.0,40.0,-100.00,SE,140,2.0,7.0,45,0.00,,,0.00,3.000000,,2013-05-27 02:43:00,
2013-05-26 21:52:00,61.0,40.0,-100.00,SE,140,2.0,7.0,45,0.00,,,0.00,3.000000,,2013-05-27 02:52:00,
2013-05-26 22:02:00,61.0,40.0,-100.00,SE,140,2.0,7.0,45,0.00,,,0.00,3.000000,,2013-05-27 03:02:00,
2013-05-26 22:33:00,58.0,40.0,-100.00,ENE,66,1.0,4.0,52,0.00,,,0.00,0.000000,,2013-05-27 03:33:00,
2013-05-26 22:43:00,58.0,40.0,-100.00,ENE,66,1.0,4.0,52,0.00,,,0.00,0.000000,,2013-05-27 03:43:00,
2013-05-26 22:53:00,58.0,40.0,-100.00,ENE,66,1.0,4.0,52,0.00,,,0.00,0.000000,,2013-05-27 03:53:00,
2013-05-26 23:02:00,58.0,40.0,-100.00,ENE,66,1.0,4.0,52,0.00,,,0.00,0.000000,,2013-05-27 04:02:00,
2013-05-26 23:33:00,56.0,43.0,-100.00,East,87,1.0,2.0,62,0.00,,,0.00,0.000000,,2013-05-27 04:33:00,
2013-05-26 23:43:00,56.0,43.0,-100.00,East,87,1.0,2.0,62,0.00,,,0.00,0.000000,,2013-05-27 04:43:00,
2013-05-26 23:52:00,56.0,43.0,-100.00,East,87,1.0,2.0,62,0.00,,,0.00,0.000000,,2013-05-27 04:52:00,